Back to catalog

FENGYUN 1C DEB

LostSSO
NORAD 36209·DEBRIS·🇨🇳 China

Launched May 10, 1999 from Taiyuan Satellite Launch Center

Loading…

Next Passes (next 24 hours)

TLE

StaleSource: Space-Track

Epoch: May 24, 2013, 20:19 UTC

1 36209U 99025DUJ 13144.84689326 +.00002080 +00000-0 +14540-2 0  9990
2 36209 098.9548 087.3002 0087779 222.8450 129.6656 13.97744677239279

Track FENGYUN 1C DEB in real time with AllMySat

Download on the App Store